Farmington, MO

10:11 AM CST on December 06, 2019 (GMT -0600)
Farmington Regional

Weather History for KFAM - October, 2019

Change the Weather History Date:

Thursday, October 24, 2019

  Actual Average Record
Temperature  
Mean Temperature 50 °F -  
Max Temperature 57 °F 64 °F 80 °F (2000)
Min Temperature 44 °F 44 °F 24 °F (2006)
Degree Days  
Heating Degree Days 14    
Moisture  
Dew Point 44 °F    
Average Humidity 87    
Maximum Humidity 100    
Minimum Humidity 59    
Precipitation  
Precipitation 0.09 in - - ()
Sea Level Pressure  
Sea Level Pressure 30.29 in    
Wind  
Wind Speed 6 mph (North)    
Max Wind Speed 9 mph    
Max Gust Speed -    
Visibility 10 miles    
Events Rain    
Averages and records for this station are not official NWS values.
T = Trace of Precipitation, MM = Missing Value Source: NWS Daily Summary

Daily Weather History Graph

Daily Weather History Graph

Search for Another Location

Airport or City:

Astronomy

Oct. 24, 2019 Rise Set
Actual Time 7:18 AM CDT 6:12 PM CDT
Civil Twilight 6:51 AM CDT 6:39 PM CDT
Nautical Twilight 6:21 AM CDT 7:10 PM CDT
Astronomical Twilight 5:50 AM CDT 7:40 PM CDT
Moon 2:55 AM CDT (10/24) 4:34 PM CDT (10/24)
Length of Visible Light 11h 47m
Length of Day
10h 53m
Waning Crescent, 16% of the Moon is Illuminated
Oct 24
Waning Crescent
Oct 27
New
Nov 4
First Quarter
Nov 12
Full
Nov 19
Last Quarter

Hourly Weather History & Observations

Time (CDT) Temp. Windchill Dew Point Humidity Pressure Visibility Wind Dir Wind Speed Gust Speed Precip Events Conditions
12:56 AM 57.0 °F - 43.0 °F 59% 30.14 in 10.0 mi SW 9.2 mph - N/A   Overcast
1:56 AM 55.9 °F - 43.0 °F 62% 30.15 in 10.0 mi SSW 6.9 mph - N/A   Partly Cloudy
2:56 AM 54.0 °F - 43.0 °F 66% 30.17 in 10.0 mi Calm Calm - N/A   Clear
3:56 AM 48.9 °F - 43.0 °F 80% 30.18 in 10.0 mi South 3.5 mph - N/A   Clear
4:56 AM 46.0 °F - 42.1 °F 86% 30.19 in 10.0 mi Calm Calm - N/A   Clear
5:56 AM 53.1 °F - 44.1 °F 71% 30.22 in 10.0 mi NNW 5.8 mph - N/A   Overcast
6:56 AM 51.1 °F - 44.1 °F 77% 30.24 in 10.0 mi NNW 8.1 mph - N/A   Overcast
7:56 AM 50.0 °F - 45.0 °F 83% 30.27 in 10.0 mi North 5.8 mph - N/A   Clear
8:56 AM 48.9 °F - 44.1 °F 83% 30.30 in 10.0 mi North 6.9 mph - N/A   Overcast
9:56 AM 50.0 °F - 44.1 °F 80% 30.32 in 10.0 mi NNE 6.9 mph - 0.00 in Rain Light Rain
10:56 AM 50.0 °F - 45.0 °F 83% 30.33 in 10.0 mi North 5.8 mph - 0.00 in Rain Light Rain
11:56 AM 48.9 °F - 45.0 °F 86% 30.34 in 10.0 mi NNE 5.8 mph - 0.00 in Rain Light Rain
12:56 PM 46.9 °F - 45.0 °F 93% 30.35 in 10.0 mi North 8.1 mph - 0.03 in Rain Light Rain
1:25 PM 46.4 °F 45.2 °F 46.4 °F 100% 30.30 in 9.0 mi NNW 3.5 mph - 0.02 in Rain Light Rain
1:39 PM 46.4 °F 42.9 °F 44.6 °F 93% 30.30 in 10.0 mi North 6.9 mph - 0.03 in Rain Light Rain
1:56 PM 46.9 °F - 45.0 °F 93% 30.34 in 10.0 mi NNW 8.1 mph - 0.03 in Rain Light Rain
2:56 PM 46.9 °F - 45.0 °F 93% 30.32 in 10.0 mi North 8.1 mph - 0.02 in Rain Light Rain
3:56 PM 46.0 °F 43.1 °F 45.0 °F 96% 30.30 in 10.0 mi NNE 5.8 mph - 0.01 in Rain Light Rain
4:56 PM 46.0 °F 43.9 °F 45.0 °F 96% 30.34 in 10.0 mi NNE 4.6 mph - 0.00 in   Overcast
5:56 PM 46.0 °F 43.9 °F 45.0 °F 96% 30.33 in 6.0 mi Variable 4.6 mph - N/A   Overcast
6:56 PM 45.0 °F 41.2 °F 44.1 °F 97% 30.32 in 7.0 mi NNE 6.9 mph - N/A   Overcast
7:56 PM 45.0 °F 40.1 °F 43.0 °F 93% 30.35 in 10.0 mi NE 9.2 mph - N/A   Overcast
8:27 PM 44.6 °F 42.2 °F 42.8 °F 93% 30.32 in 10.0 mi North 4.6 mph - N/A   Overcast
8:56 PM 45.0 °F 42.6 °F 43.0 °F 93% 30.37 in 10.0 mi North 4.6 mph - N/A   Overcast
9:14 PM 44.6 °F 41.4 °F 42.8 °F 93% 30.32 in 10.0 mi North 5.8 mph - N/A   Overcast
9:56 PM 45.0 °F 40.1 °F 43.0 °F 93% 30.35 in 9.0 mi North 9.2 mph - N/A   Overcast
10:16 PM 44.6 °F 41.4 °F 42.8 °F 93% 30.33 in 9.0 mi Variable 5.8 mph - N/A   Overcast
10:56 PM 45.0 °F 42.6 °F 43.0 °F 93% 30.38 in 10.0 mi North 4.6 mph - 0.00 in Rain Light Rain
11:56 PM 45.0 °F 42.6 °F 44.1 °F 97% 30.37 in 7.0 mi North 4.6 mph - 0.00 in Rain Light Rain